Bremerton, WA

3:15 AM PST on December 07, 2019 (GMT -0800)
Bremerton National

Weather History for KPWT - August, 2019

Change the Weather History Date:

Wednesday, August 21, 2019

  Actual Average Record
Temperature  
Mean Temperature 60 °F -  
Max Temperature 66 °F 72 °F 89 °F (2018)
Min Temperature 55 °F 50 °F 41 °F (2010)
Degree Days  
Heating Degree Days 4    
Growing Degree Days 10 (Base 50)    
Moisture  
Dew Point 59 °F    
Average Humidity 91    
Maximum Humidity 100    
Minimum Humidity 77    
Precipitation  
Precipitation 0.33 in - - ()
Sea Level Pressure  
Sea Level Pressure 30.01 in    
Wind  
Wind Speed 8 mph ()    
Max Wind Speed 13 mph    
Max Gust Speed 18 mph    
Visibility 7.9 miles    
Events Rain    
Averages and records for this station are not official NWS values.
T = Trace of Precipitation, MM = Missing Value Source: Averaged Metar Reports

Daily Weather History Graph

Daily Weather History Graph

Search for Another Location

Airport or City:

Astronomy

Aug. 21, 2019 Rise Set
Actual Time 6:14 AM PDT 8:12 PM PDT
Civil Twilight 5:41 AM PDT 8:45 PM PDT
Nautical Twilight 5:01 AM PDT 9:25 PM PDT
Astronomical Twilight 4:15 AM PDT 10:10 PM PDT
Moon 11:07 PM PDT (8/21) 12:19 PM PDT (8/21)
Length of Visible Light 15h 03m
Length of Day
13h 57m
Waning Gibbous, 68% of the Moon is Illuminated
Aug 21
Waning Gibbous
Aug 23
Last Quarter
Aug 30
New
Sep 5
First Quarter
Sep 13
Full

Hourly Weather History & Observations

Time (PDT) Temp. Dew Point Humidity Pressure Visibility Wind Dir Wind Speed Gust Speed Precip Events Conditions
12:56 AM 61.0 °F 54.0 °F 78% 30.04 in 10.0 mi SW 11.5 mph - N/A   Partly Cloudy
1:09 AM 60.8 °F 53.6 °F 77% 30.00 in 10.0 mi SW 10.4 mph - N/A   Mostly Cloudy
1:30 AM 60.8 °F 53.6 °F 77% 30.00 in 10.0 mi SW 10.4 mph - N/A   Scattered Clouds
1:56 AM 59.0 °F 53.1 °F 81% 30.03 in 10.0 mi SSW 8.1 mph - N/A   Clear
2:56 AM 55.9 °F 53.1 °F 90% 30.04 in 10.0 mi SSW 6.9 mph - N/A   Clear
3:56 AM 59.0 °F 54.0 °F 83% 30.03 in 10.0 mi SSW 6.9 mph - N/A   Mostly Cloudy
4:56 AM 60.1 °F 54.0 °F 80% 30.03 in 10.0 mi SSW 3.5 mph - N/A   Overcast
5:56 AM 57.9 °F 55.9 °F 93% 30.03 in 10.0 mi SSW 5.8 mph - 0.06 in   Mostly Cloudy
6:24 AM 57.2 °F 57.2 °F 100% 30.00 in 4.0 mi SW 9.2 mph - 0.02 in Rain Light Rain
6:44 AM 57.2 °F 57.2 °F 100% 30.00 in 4.0 mi SW 8.1 mph - 0.04 in Rain Light Rain
6:56 AM 57.9 °F 57.0 °F 97% 30.04 in 5.0 mi SW 9.2 mph - 0.07 in Rain Light Rain
7:52 AM 59.0 °F 57.2 °F 94% 30.00 in 9.0 mi SW 8.1 mph - 0.04 in Rain Light Rain
7:56 AM 59.0 °F 57.9 °F 96% 30.05 in 6.0 mi SW 9.2 mph - 0.06 in Rain Rain
8:52 AM 59.0 °F 57.2 °F 94% 30.00 in 10.0 mi SSW 8.1 mph - 0.02 in Rain Light Rain
8:56 AM 59.0 °F 57.9 °F 96% 30.05 in 10.0 mi SSW 9.2 mph - 0.02 in Rain Light Rain
9:23 AM 59.0 °F 57.2 °F 94% 30.00 in 10.0 mi SSW 6.9 mph - 0.01 in Rain Light Rain
9:30 AM 60.8 °F 57.2 °F 88% 30.00 in 10.0 mi SSW 9.2 mph - 0.02 in Rain Light Rain
9:56 AM 60.1 °F 59.0 °F 96% 30.04 in 10.0 mi SW 12.7 mph - 0.02 in Rain Light Rain
10:56 AM 61.0 °F 59.0 °F 93% 30.04 in 9.0 mi SSW 11.5 mph - 0.00 in Rain Light Rain
11:56 AM 63.0 °F 59.0 °F 87% 30.04 in 10.0 mi SSW 12.7 mph - 0.00 in   Overcast
12:03 PM 62.6 °F 59.0 °F 88% 29.99 in 10.0 mi SSW 12.7 mph - N/A   Overcast
12:30 PM 62.6 °F 59.0 °F 88% 29.99 in 10.0 mi SSW 11.5 mph - N/A   Overcast
12:56 PM 64.0 °F 59.0 °F 84% 30.03 in 10.0 mi South 10.4 mph - N/A   Overcast
1:56 PM 64.9 °F 60.1 °F 84% 30.03 in 8.0 mi South 10.4 mph 18.4 mph N/A   Mostly Cloudy
2:11 PM 66.2 °F 60.8 °F 83% 29.98 in 10.0 mi SSW 11.5 mph - N/A   Mostly Cloudy
2:35 PM 66.2 °F 60.8 °F 83% 29.97 in 10.0 mi SSW 12.7 mph - N/A   Mostly Cloudy
2:56 PM 66.9 °F 60.1 °F 79% 30.01 in 10.0 mi South 9.2 mph - N/A   Scattered Clouds
3:28 PM 66.2 °F 60.8 °F 83% 29.96 in 10.0 mi South 6.9 mph - N/A   Mostly Cloudy
3:56 PM 64.9 °F 60.1 °F 84% 30.01 in 10.0 mi South 6.9 mph - N/A   Overcast
4:56 PM 64.9 °F 61.0 °F 87% 30.01 in 10.0 mi Variable 5.8 mph - 0.00 in   Overcast
5:56 PM 64.9 °F 61.0 °F 87% 30.01 in 9.0 mi Calm Calm - N/A   Overcast
6:30 PM 64.4 °F 62.6 °F 94% 29.97 in 3.0 mi NNE 6.9 mph - N/A   Overcast
6:39 PM 64.4 °F 62.6 °F 94% 29.97 in 2.5 mi NE 6.9 mph - N/A   Overcast
6:49 PM 62.6 °F 62.6 °F 100% 29.97 in 5.0 mi NE 5.8 mph - 0.00 in Rain Light Rain
6:56 PM 63.0 °F 62.1 °F 97% 30.02 in 6.0 mi NE 6.9 mph - 0.00 in Rain Light Rain
7:14 PM 62.6 °F 62.6 °F 100% 29.97 in 2.5 mi NE 9.2 mph - 0.01 in Rain Light Rain
7:19 PM 62.6 °F 62.6 °F 100% 29.97 in 1.8 mi NE 9.2 mph - 0.02 in Rain Light Rain
7:33 PM 62.6 °F 62.6 °F 100% 29.98 in 3.0 mi ENE 5.8 mph - 0.02 in Rain Light Rain
7:40 PM 62.6 °F 62.6 °F 100% 29.98 in 6.0 mi ENE 6.9 mph - 0.03 in Rain Light Rain
7:56 PM 63.0 °F 62.1 °F 97% 30.03 in 4.0 mi NE 6.9 mph - 0.04 in Rain Light Rain
8:06 PM 62.6 °F 60.8 °F 94% 29.99 in 6.0 mi NNE 10.4 mph - 0.00 in Rain Light Rain
8:34 PM 60.8 °F 60.8 °F 100% 30.00 in 4.0 mi NE 9.2 mph - 0.01 in Rain Light Rain
8:51 PM 60.8 °F 60.8 °F 100% 30.00 in 10.0 mi NE 8.1 mph - 0.01 in Rain Light Rain
8:56 PM 61.0 °F 60.1 °F 97% 30.05 in 10.0 mi ENE 8.1 mph - 0.01 in Rain Light Rain
9:06 PM 60.8 °F 60.8 °F 100% 30.01 in 10.0 mi ENE 6.9 mph - 0.00 in Rain Light Rain
9:56 PM 60.1 °F 59.0 °F 96% 30.05 in 10.0 mi NE 6.9 mph - 0.01 in Rain Light Rain
10:19 PM 60.8 °F 59.0 °F 94% 30.01 in 10.0 mi NNE 6.9 mph - N/A   Overcast
10:56 PM 60.1 °F 59.0 °F 96% 30.05 in 6.0 mi NE 6.9 mph - 0.00 in Rain Light Rain
11:56 PM 59.0 °F 57.9 °F 96% 30.06 in 2.5 mi Calm Calm - 0.04 in Rain Light Rain